Starlink 35411

operational
NORAD ID: 66560 Int'l Des: 2025-268 Owner: SPXS Country: US Constellation: starlink
LEOCIRCULAR

About Starlink 35411

Description loading...

Live Position

Loading 3D Globe...

Upcoming Passes

Altitude History

Altitude vs Time

uPlot chart will show altitude changes over time

Two-Line Element Set

1 66560U 25268D 26013.14043603 .00020149 00000-0 73955-3 0 9997
2 66560 43.0006 300.8274 0001481 269.8201 90.2481 15.27587822 9464
Epoch: Jan 13, 2026 • Age: 13 hours

Current Status

Altitude 483.0 km
Velocity 7.63 km/s
Sub-Earth Point 21.72°N, 31.17°W
Launch Date Nov 21, 2025
Age 0.1 years
Type internet

Technical Details

Classification Payload
Mass 575.00 kg
Dry Mass 530.00 kg
Total Mass 575.00 kg
Length 0.30 m
Diameter 4.10 m
Span 29.00 m
Shape Box + pan
Manufacturer SPXS
Bus Type Starlink V2MO
Phase Status In Orbit
Owner/State SPXS/US

Large Constellations

Loading constellations...